TITAN 3C TRANSTAGE DEB, 27792

Orbit data source: Space-Track

TITAN 3C TRANSTAGE DEB, 27792 is space debris in HEO originally from a launch on Tue, 21 Dec 1965 UTC launched from the Air Force Eastern Test Range (AFETR). Debris objects in space refer to the collection of defunct objects orbiting the Earth. Examples of debris include non-operational satellites, rocket bodies, and fragments generated from explosions, collisions, or faulty payload assembly.

Loading next visibility...
Identifier
27792, 1965-108BG
Orbit
HEO
Country
Flag of USUS
Related business
Manufacturer
Unknown
Mission
Spacecraft
Bus & Motor
Unknown
Mass
Unknown
Launch date (UTC)
1965-12-21 (60 years ago)
Launch vehicle
Unknown
Launch site
Air Force Eastern Test Range (AFETR)
Object type
Payload
Rocket body
Debris
Shape & HBR
Unknown shape, 0.2 m
Radar Cross Section
Medium (>0.1 m² and <1 m²)

Expand to show TLE details & history
Last TLE update: 2 months ago

TLE from 2 months ago
0 TITAN 3C TRANSTAGE DEB
1 27792U 65108BG  25286.31655679  .00000271  00000-0  79451-3 0  9991
2 27792  26.2600 256.0635 6806085 226.7275  51.6169  2.78237264259809
Epoch: 2025-10-13T07:35Z
TLE epoch observation values (Epoch: 2025-10-13T07:35:50.506Z)
Latitude
-0.00015°
Longitude
119.93554°
Altitude
15,105.559 km
Speed
4.294 km/s
True Right ascension
17h 04m 04s
True Declination
0° 00' 01"
Sunlit
Object was in daylight at epoch
Visualization orbit readout
Latitude
Unknown
Longitude
Unknown
Altitude
Unknown
Speed
Unknown
Apparent Right ascension
Unknown
Apparent Declination
Unknown
Sunlit
N/A
Visualization observer readout
Local Sidereal Time
08:50:02
Azimuth
Unknown
Elevation
Unknown
Doppler factor
Unknown
Orbital elements
Apogee altitude
29,514.097 km
Perigee altitude
443.008 km
Semi-major axis
21,356.689 km
Eccentricity
0.68061
Inclination
26.26°
RAAN
256.0635°
Arg. of periapsis
226.7275°
True anomaly
133.33701°
Mean anomaly
51.6169°
Eccentric anomaly
90.61068°
Mean motion
0.69541 °/min
Orbital period
517.68 mins
BSTAR
0.00079451
Loading maneuver chart data...
Computing Atmospheric mass density...

Documentation

Showing up to 5 results
|